Location: Camaret
(48.2753°N, 4.5961°W)
Time: 01:26:46
(UTC+00:00)

Cosmos 2263 Rocket - Pass Details

Date: 29 October 2020
Orbit: 822 x 850 km, 71.0° (Epoch: 26 November)

Event Time Altitude Azimuth Distance (km) Brightness Sun altitude
Rises 18:35:59 0° 336° (NNW) 3,421 5.7 -15.9°
Reaches altitude 10° 18:38:45 10° 346° (NNW) 2,485 4.8 -16.3°
Maximum altitude 18:43:46 31° 48° (NE) 1,462 3.0 -17.1°
Enters shadow 18:45:08 28° 74° (ENE) 1,560 3.0 -17.4°
